2024/04/12 00:00:00, 9.4,11.7
2024/04/12 00:10:00, 9.7,11.6
2024/04/12 00:20:00,13.7,11.2
2024/04/12 00:30:00,11.2,11.5
2024/04/12 00:40:00, 8.2,11.3
2024/04/12 00:50:00, 5.4,10.8
2024/04/12 01:00:00, 7.6,10.9
2024/04/12 01:10:00,10.8,10.8
2024/04/12 01:20:00, 2.8,11.3
2024/04/12 01:30:00, 1.1,10.7
2024/04/12 01:40:00, 0.8,10.2
2024/04/12 01:50:00, 1.0, 9.9
2024/04/12 02:00:00, 1.0, 9.8
2024/04/12 02:10:00, 1.1, 9.8
2024/04/12 02:20:00, 1.1, 9.8
2024/04/12 02:30:00, 0.9, 9.4
2024/04/12 02:40:00, 0.8, 9.0
2024/04/12 02:50:00, 0.7, 9.1
2024/04/12 03:00:00, 0.6, 8.7
2024/04/12 03:10:00, 0.5, 8.1
2024/04/12 03:20:00, 0.4, 8.7
2024/04/12 03:30:00, 0.4, 9.2
2024/04/12 03:40:00, 0.4, 8.8
2024/04/12 03:50:00, 0.6, 9.0
2024/04/12 04:00:00, 1.3, 9.0
2024/04/12 04:10:00, 1.2, 9.3
2024/04/12 04:20:00, 1.8, 9.4
2024/04/12 04:30:00, 5.6, 9.4
2024/04/12 04:40:00, 1.3, 9.4
2024/04/12 04:50:00, 1.6, 9.4
2024/04/12 05:00:00, 1.1, 9.0
2024/04/12 05:10:00, 0.9, 9.0
2024/04/12 05:20:00, 0.7, 8.8
2024/04/12 05:30:00, 0.7, 8.7
2024/04/12 05:40:00, 0.8, 8.2
2024/04/12 05:50:00, 0.8, 7.5
2024/04/12 06:00:00, 0.7, 7.5
2024/04/12 06:10:00, 0.9, 7.3
2024/04/12 06:20:00, 1.2, 7.8
2024/04/12 06:30:00, 2.3, 8.1
2024/04/12 06:40:00, 1.7, 8.5
2024/04/12 06:50:00, 1.7, 9.3
2024/04/12 07:00:00, 3.2,10.3
2024/04/12 07:10:00,11.9,11.6
2024/04/12 07:20:00,15.0,12.6
2024/04/12 07:30:00,20.0,13.6
2024/04/12 07:40:00,18.4,14.6
2024/04/12 07:50:00,17.9,16.0
2024/04/12 08:00:00, 6.9,17.0
2024/04/12 08:10:00,12.6,17.8
2024/04/12 08:20:00,15.7,18.7
2024/04/12 08:30:00,12.2,18.9
2024/04/12 08:40:00, 9.5,20.0
2024/04/12 08:50:00, 4.2,20.4
2024/04/12 09:00:00, 6.7,21.9
2024/04/12 09:10:00, 4.4,22.3
2024/04/12 09:20:00, 5.7,23.9
2024/04/12 09:30:00, 8.4,23.6
2024/04/12 09:40:00, 6.6,23.3
2024/04/12 09:50:00, 1.3,23.7
2024/04/12 10:00:00, 1.3,22.9
2024/04/12 10:10:00, 3.1,21.8
2024/04/12 10:20:00, 1.6,21.6
2024/04/12 10:30:00, 1.1,23.5
2024/04/12 10:40:00, 0.7,23.2
2024/04/12 10:50:00, 0.2,22.8
2024/04/12 11:00:00, 0.0,22.6
2024/04/12 11:10:00, 0.0,22.5
2024/04/12 11:20:00, 0.2,22.8
2024/04/12 11:30:00, 0.4,22.1
2024/04/12 11:40:00, 0.0,22.2
2024/04/12 11:50:00, 0.8,22.2
2024/04/12 12:00:00, 0.1,22.4
2024/04/12 12:10:00, 0.0,21.7
2024/04/12 12:20:00, 0.3,22.3
2024/04/12 12:30:00, 0.3,22.2
2024/04/12 12:40:00, 0.2,22.2
2024/04/12 12:50:00, 0.0,22.3
2024/04/12 13:00:00, 0.0,21.9
2024/04/12 13:10:00, 0.0,21.7
2024/04/12 13:20:00, 0.1,21.8
2024/04/12 13:30:00, 0.0,21.6
2024/04/12 13:40:00, 0.1,21.8
2024/04/12 13:50:00, 0.0,22.3
2024/04/12 14:00:00, 0.0,22.7
2024/04/12 14:10:00, 0.0,22.5
2024/04/12 14:20:00, 0.0,22.3
2024/04/12 14:30:00, 0.2,22.2
2024/04/12 14:40:00, 0.3,21.9
2024/04/12 14:50:00, 0.0,22.3
2024/04/12 15:00:00, 0.0,22.7
2024/04/12 15:10:00, 0.1,21.8
2024/04/12 15:20:00, 0.0,22.4
2024/04/12 15:30:00, 0.0,22.8
2024/04/12 15:40:00, 0.0,21.9
2024/04/12 15:50:00, 0.1,22.1
2024/04/12 16:00:00, 0.3,19.7
2024/04/12 16:10:00, 0.9,19.4
2024/04/12 16:20:00, 0.7,19.2
2024/04/12 16:30:00, 0.8,18.5
2024/04/12 16:40:00, 1.1,18.2
2024/04/12 16:50:00, 0.8,18.0
2024/04/12 17:00:00, 0.1,17.8
2024/04/12 17:10:00, 0.0,17.7
2024/04/12 17:20:00, 0.7,17.9
2024/04/12 17:30:00, 0.6,17.6
2024/04/12 17:40:00, 0.0,16.3
2024/04/12 17:50:00, 0.0,15.7
2024/04/12 18:00:00, 0.0,15.2
2024/04/12 18:10:00, 0.1,14.4
2024/04/12 18:20:00, 0.5,13.5
2024/04/12 18:30:00, 1.5,12.7
2024/04/12 18:40:00, 0.8,12.8
2024/04/12 18:50:00, 0.0,13.3
2024/04/12 19:00:00, 0.0,12.7
2024/04/12 19:10:00, 0.0,11.7
2024/04/12 19:20:00, 0.0,11.3
2024/04/12 19:30:00, 0.0,11.0
2024/04/12 19:40:00, 0.4,10.4
2024/04/12 19:50:00, 1.4, 9.8
2024/04/12 20:00:00, 1.4, 9.9
2024/04/12 20:10:00, 1.6, 9.7
2024/04/12 20:20:00, 0.9, 9.2
2024/04/12 20:30:00, 0.4, 8.8
2024/04/12 20:40:00, 0.3, 8.7
2024/04/12 20:50:00, 0.1, 8.6
2024/04/12 21:00:00, 0.4, 8.5
2024/04/12 21:10:00, 0.7, 8.6
2024/04/12 21:20:00, 0.3, 8.1
2024/04/12 21:30:00, 0.1, 7.7
2024/04/12 21:40:00, 0.0, 8.1
2024/04/12 21:50:00, 2.0, 8.4
2024/04/12 22:00:00, 0.4, 8.2
2024/04/12 22:10:00, 0.0, 8.1
2024/04/12 22:20:00, 0.0, 8.0
2024/04/12 22:30:00, 0.0, 8.1
2024/04/12 22:40:00, 0.0, 8.3
2024/04/12 22:50:00, 0.0, 7.7
2024/04/12 23:00:00, 0.0, 7.8
2024/04/12 23:10:00, 0.0, 7.3
2024/04/12 23:20:00, 0.0, 7.0
2024/04/12 23:30:00, 0.0, 7.7
2024/04/12 23:40:00, 0.1, 7.6
2024/04/12 23:50:00, 3.1, 7.6
